Location: Schommer Observatory
(40.5200°N, 74.4500°W)
Time: 12:56:31
(UTC-05:00)

OTV 5 (USA 277) - Pass Details

Date: 16 November 2017
Orbit: 404 x 417 km, 43.0° (Epoch: 07 September)

Event Time Altitude Azimuth Distance (km) Brightness Sun altitude
Exits shadow 05:08:57 54° 335° (NNW) 498 ? -18.4°
Maximum altitude 05:09:19 58° 8° (N) 474 ? -18.3°
Drops below altitude 10° 05:12:34 10° 88° (E) 1,454 ? -17.7°
Sets 05:14:40 0° 93° (E) 2,313 ? -17.3°
